Regional Weather Roundup
Issued by NWS Goodland, KS

Home | Current Version | Previous Version | Graphics & Text | Print | Product List | Glossary On
Versions: 1 2 3 4 5 6 7 8 9 10 11 12 13 14 15 16 17 18 19 20 21 22 23 24 25 26 27 28 29 30 31 32 33 34 35 36 37 38 39 40 41 42 43 44 45 46 47 48 49 50
000
ASUS43 KGLD 041908
RWRGLD

GOODLAND FORECAST AREA HOURLY WEATHER ROUNDUP
NATIONAL WEATHER SERVICE GOODLAND KS
100 PM MDT MON MAY 04 2015

...OFFICIAL OBSERVATIONS...

CITY           SKY/WX    TMP DP  RH WIND       PRES   REMARKS
GOODLAND KS    CLOUDY    61  47  59 NE10      30.12S
HILL CITY KS   PTSUNNY   66  54  65 E3        30.08S
IMPERIAL NEB   LGT RAIN  53  46  77 NE6       30.14R
MCCOOK NEB     CLOUDY    58  42  55 NE17      30.11F
AKRON CO       CLOUDY    54  43  66 E12       30.13F
BURLINGTON CO  PTSUNNY   61  49  64 NE12      30.12F
LIMON CO       CLOUDY    59  46  62 E6        30.12F
$$

...UNOFFICIAL OBSERVATIONS...

CITY           SKY/WX    TMP DP  RH WIND       PRES   REMARKS
COLBY KS       CLOUDY    64  52  63 CALM      30.12R
GOVE KS          N/A     68  32  26 MISG        N/A
LENORA KS        N/A     62  32  32 MISG        N/A
NORTON KS      DRIZZLE   63  45  51 NE8       30.08S
SHARON SPRINGS   N/A     64  52  66 MISG        N/A
KIT CARSON CO    N/A     63  50  63 MISG        N/A
YUMA CO          N/A     51  42  71 E6          N/A
$$



USA.gov is the U.S. government's official web portal to all federal, state and local government web resources and services.